Regional Weather Roundup
Issued by NWS

Home | Current Version | Previous Version | Text Only | Print | Product List | Glossary On
Versions: 1 2 3 4 5 6 7 8 9 10 11 12 13 14 15 16 17 18 19 20 21 22 23 24 25 26 27 28 29 30 31 32 33 34 35 36 37 38 39 40 41 42 43 44 45 46 47 48 49 50
000
ASUS43 KLSX 241407
RWRMO

WEATHER SUMMARY FOR MISSOURI
NATIONAL WEATHER SERVICE SPRINGFIELD MO
900 AM CDT SUN SEP 24 2017

NOTE: "FAIR" INDICATES FEW OR NO CLOUDS BELOW 12,000 FEET WITH NO
       SIGNIFICANT WEATHER AND/OR OBSTRUCTIONS TO VISIBILITY.
       CURRENT SKY AND/OR WEATHER CONDITIONS ARE NOT AVAILABLE FOR
       CHILLICOTHE AND FARMINGTON.

MOZ001>031-035>038-043-044-053-054-241500-
...NORTHERN AND WESTERN MISSOURI...

CITY           SKY/WX    TMP DP  RH WIND       PRES   REMARKS
KANSAS CTY INT MOSUNNY   76  68  76 S12       29.98R
KANSAS C DTWN  SUNNY     79  67  66 S6        29.97R
LEE`S SUMMIT   SUNNY     74  67  78 S12       29.99S
ST JOSEPH      SUNNY     76  68  76 S6        29.97R
CHILLICOTHE      N/A     74  67  78 SE5       30.01S
KIRKSVILLE     SUNNY     74  65  73 S8        30.04S

$$
MOZ066>068-077>081-088>096-101>105-241500-
...SOUTHWEST MISSOURI...

CITY           SKY/WX    TMP DP  RH WIND       PRES   REMARKS
SPRINGFIELD    SUNNY     75  67  76 SE10      30.02S
JOPLIN         SUNNY     75  68  78 SE7       30.00R
BRANSON        SUNNY     73  66  78 SE3       30.04S

$$
MOZ032>034-039>042-045>050-055>058-069>072-241500-
...CENTRAL MISSOURI...

CITY           SKY/WX    TMP DP  RH WIND       PRES   REMARKS
COLUMBIA       SUNNY     75  67  76 SE8       30.04S
JEFFERSON CITY SUNNY     72  65  78 SE7       30.03S
ROLLA          SUNNY     75  66  73 S7        30.07R
SEDALIA        SUNNY     76  69  79 SE8       30.03R
WHITEMAN AFB   SUNNY     74  74 100 S7        29.99S
WARRENSBURG    SUNNY     72  64  78 SE7       30.00R
OSAGE BEACH    SUNNY     72  66  81 SE7       30.05R

$$
MOZ051-052-059>065-241500-
...EAST CENTRAL MISSOURI...

CITY           SKY/WX    TMP DP  RH WIND       PRES   REMARKS
ST LOUIS INTL  SUNNY     78  67  68 SE7       30.07R
SPIRIT OF STL  SUNNY     75  69  81 CALM      30.05R
ST CHARLES     SUNNY     76  66  71 E6        30.05S

$$
MOZ072>076-082>087-097>100-106>115-241500-
...SOUTH CENTRAL AND SOUTHEAST MISSOURI...

CITY           SKY/WX    TMP DP  RH WIND       PRES   REMARKS
CAPE GIRARDEAU SUNNY     78  68  71 CALM      30.04S
FARMINGTON     SUNNY     73  67  81 CALM      30.09R
POPLAR BLUFF   SUNNY     75  70  84 NE3       30.04R
WEST PLAINS    SUNNY     75  67  76 VRB3      30.07S

$$



USA.gov is the U.S. government's official web portal to all federal, state and local government web resources and services.